"Pseudo-MPEC" for P10LfTz

Created 2019 Jan 25 21:18:33 UT using Find_Orb

Click here for an explanation of pseudo-MPECs

 
 Astrometry: 
     P10LfTz  C2018 12 22yv%sek]OHo54S'a#XS]2!t+pH]KAstrometryp6HPd;UkWqml,sGF51
     P10LfTz  C2018 12 2237]N.i?V?)u48Q%ILobMid+N)bKiOA[2:cu)(Qe6W1Z4BPvos`!DF51
     P10LfTz  C2018 12 22Yb2TEn_G4f7EQSePVEOPqWh=%6PA^fqDg_d$*;20'bfCaoyaT21BF51
     P10LfTz  C2018 12 22?w`cdE'hOB:#bZredacted;J*Te*.x;*(+p_[myxWx%y(TBY4@,hF51
     P10LfTz  C2019 01 09tD^6`DrSCpdvPd$RrFehy/cAI-Kam_57DKRBC_?n$;DB?P:?o(voF51
     P10LfTz  C2019 01 09U9Uj+S]u9voa0+B*56#_?yT08x%_:4xJ%)#u@S4=HPq2[npK*t0IF51
     P10LfTz  C2019 01 09KeMI5,-l''EpxGFp4[d*`HXJr,B`r9yw$F93-_n5+3,]@TG%:J]?F51
     P10LfTz  C2019 01 0958X;9K(1Q5pIIVh,wB.V62mU.7qjRK%E^t8/#8@.NjWQGclickE7F51
     P10LfTz ^C2019 01 12.64905209 59 45.147+38 16 00.53   ~1CJI 21.73GVNEOCP568
     P10LfTz ^C2019 01 12.64999809 59 45.072+38 16 00.91   ~1CJI 21.69GVNEOCP568
     P10LfTz ^C2019 01 12.65094909 59 45.000+38 16 01.31   ~1CJI 21.61GVNEOCP568
     P10LfTz  C2019 01 17Gg?^8/kdhjHc(1f@,NHv+SC+kuLDO^VQOi9Z\'$^j,p0'^ORD)POV06
     P10LfTz  C2019 01 17(,tXOlKdORhgCu]-V9l+ljhv?pGNiVBKp]lc.VlaDY^sqkO075V'V06
     P10LfTz  C2019 01 17q0qBMhZ?+huw)sVgm'3v8JeHRC!,qU[h?Sdlux1A`WJZgl'oYWa)V06
     P10LfTz  C2019 01 177?WY_dw+_v=?=WPAk3L3F*tP']?hereGH;^As=]nfwj]pa:G),epV06
     P10LfTz  C2019 01 25wc@D16\S/S3FHywl\HTQo]74-I@J@FK=clu\x(k,;kToCF+k\:7sH01
     P10LfTz  C2019 01 25HO41u*`W]hi*GCSjC^5xAO5nW4kY8b'gQmb[Ssvu-B*3gNqLl,;;H01
     P10LfTz  C2019 01 252c%%[3xT/s;ioF6NM9T@yo[SAmuj^D_=Zr;4'hOp8OLN#A1t@[U7H01
     P10LfTz  C2019 01 25?$@yv[gXJ=(FUj$/25),p8C+hfor\IcK]$k6UM$3QuomAJ7E3#[0H01
     P10LfTz  C2019 01 259:jeQnVhI]l6hg,5.0MTxPi::tIHekX:[Cl*T4-kxZG^IUHvcF',V06
     P10LfTz  C2019 01 25diXX$$b08J!rH[?,+OT[l!y8ZZiZD28V7n[S$M#FKa?WFnf\aAR:V06
     P10LfTz  C2019 01 25oFFK7;`k?hnEh@aaQaVqwq8Pe)t9bGI/GObik\W`[yZvae8q]5BOV06
     P10LfTz  C2019 01 25m)enXfWG1mYK(X+explanation%sq=jTR2)r?f?vBfY.[kNll9_%V06

Station data:
(568) Mauna Kea  (N19.826116 W155.472200)  US/Hawaii.
(F51) Pan-STARRS 1, Haleakala  (N20.707235 W156.255910)  US/Hawaii.
   Observers N. Primak, A. Schultz, S. Watters, J. Thiel, T. Goggia. Measurer
   PS1 Science Consortium. 1.8-m Ritchey-Chrétien + CCD.
(H01) Magdalena Ridge Observatory, Socorro  (N33.984833 W107.189333)  US/New
   Mexico.  Observers W. H. Ryan, E. V. Ryan. Measurer W. H. Ryan. 2.4-m
   f/8.9 reflector + CCD.
(V06) Catalina Sky Survey-Kuiper  (N32.416847 W110.732550)  US/Arizona.
   Observers B. M. Africano, E. J. Christensen, G. A. Farneth, D. C. Fuls, A.
   R. Gibbs, A. D. Grauer, H. Groeller, J. A. Johnson, R. A. Kowalski, S. M.
   Larson, G. J. Leonard, R. L. Seaman, F. C. Shelly. 1.55-m reflector + CCD.

Orbital elements:  P10LfTz
   Perihelion 2018 Oct 3.158964 +/- 0.0134 TT =  3:48:54 (JD 2458394.658964)
Epoch 2019 Jan 25.0 TT = JDT 2458508.5   Earth MOID: 0.2405   AutoNEOCP
M  24.09004173 +/- 0.008            (J2000 ecliptic)
n   0.21161123 +/- 5.83e-5          Peri.   12.98299 +/- 0.0029
a   2.78896827 +/- 0.000512         Node    35.85428 +/- 0.0056
e   0.5595630 +/- 9.32e-5           Incl.   10.82068 +/- 0.0006
P   4.66                   H 20.8   G  0.15   U  6.2  
q 1.22836477 +/- 4.73e-5    Q 4.34957177 +/- 0.00106
From 23 observations 2018 Dec. 22-2019 Jan. 25; mean residual 0".49
Residuals in arcseconds: 
181222 F51  .22-  .13+    190112 568  .07+  .05-    190125 H01  .15-  .20-    
181222 F51  .00   .07-    190112 568  .06+  .07-    190125 H01  .52-  .55-    
181222 F51  .03-  .11+    190112 568  .09+  .06-    190125 H01  .17-  .28-    
181222 F51  .19+  .14-    190117 V06  .42-  .07+    190125 V06  2.6+  1.5+    
190109 F51  .09+  .04+    190117 V06  .13-  .15+    190125 V06  .20-  .07-    
190109 F51  .09+  .03+    190117 V06  .07-  .18-    190125 V06  .17-  .10-    
190109 F51  .01-  .07+    190117 V06  .12-  .10-    190125 V06  .74-  .07+    
190109 F51  .14+  .02-    190125 H01  .37-  .26-    

Ephemerides (geocentric):
Date (UTC) HH   RA              Dec         delta   r     elong  mag " sig PA
---- -- -- --  -------------   -----------  ------ ------ -----  --- ---- ---
2019 01 25 21  09 40 25.921   +39 22 38.55  .80679 1.7480 154.6 22.3 .137  32
2019 01 25 22  09 40 21.917   +39 22 44.24  .80701 1.7482 154.6 22.3 .138  32
2019 01 25 23  09 40 17.911   +39 22 49.89  .80723 1.7485 154.7 22.3 .139  32
2019 01 26 00  09 40 13.905   +39 22 55.49  .80744 1.7488 154.7 22.3 .140  32
2019 01 26 01  09 40 09.898   +39 23 01.05  .80766 1.7491 154.7 22.3 .141  32
2019 01 26 02  09 40 05.890   +39 23 06.55  .80788 1.7494 154.7 22.3 .142  32
2019 01 26 03  09 40 01.882   +39 23 12.01  .80810 1.7497 154.7 22.3 .144  32
2019 01 26 04  09 39 57.873   +39 23 17.43  .80832 1.7500 154.8 22.3 .145  32
2019 01 26 05  09 39 53.863   +39 23 22.79  .80853 1.7502 154.8 22.3 .146  32
2019 01 26 06  09 39 49.853   +39 23 28.11  .80875 1.7505 154.8 22.3 .147  32
2019 01 26 07  09 39 45.841   +39 23 33.38  .80897 1.7508 154.8 22.3 .148  32
2019 01 26 08  09 39 41.829   +39 23 38.60  .80919 1.7511 154.8 22.3 .150  32
2019 01 26 09  09 39 37.817   +39 23 43.78  .80941 1.7514 154.9 22.3 .151  31
2019 01 26 10  09 39 33.804   +39 23 48.91  .80964 1.7517 154.9 22.3 .152  31
2019 01 26 11  09 39 29.790   +39 23 53.99  .80986 1.7520 154.9 22.3 .153  31
2019 01 26 12  09 39 25.776   +39 23 59.02  .81008 1.7522 154.9 22.3 .154  31
2019 01 26 13  09 39 21.761   +39 24 04.01  .81030 1.7525 154.9 22.3 .155  31
2019 01 26 14  09 39 17.745   +39 24 08.95  .81052 1.7528 155.0 22.3 .157  31
2019 01 26 15  09 39 13.729   +39 24 13.84  .81074 1.7531 155.0 22.3 .158  31
2019 01 26 16  09 39 09.712   +39 24 18.69  .81097 1.7534 155.0 22.3 .159  31
2019 01 26 17  09 39 05.695   +39 24 23.48  .81119 1.7537 155.0 22.3 .160  31
2019 01 26 18  09 39 01.677   +39 24 28.23  .81141 1.7540 155.0 22.3 .161  31
2019 01 26 19  09 38 57.659   +39 24 32.93  .81164 1.7542 155.1 22.3 .163  31
2019 01 26 20  09 38 53.640   +39 24 37.59  .81186 1.7545 155.1 22.3 .164  31
2019 01 26 21  09 38 49.621   +39 24 42.19  .81209 1.7548 155.1 22.3 .165  31
2019 01 26 22  09 38 45.602   +39 24 46.75  .81231 1.7551 155.1 22.3 .166  31
2019 01 26 23  09 38 41.581   +39 24 51.27  .81254 1.7554 155.1 22.3 .167  30
2019 01 27 00  09 38 37.561   +39 24 55.73  .81276 1.7557 155.2 22.3 .169  30
2019 01 27 01  09 38 33.540   +39 25 00.15  .81299 1.7560 155.2 22.3 .170  30
2019 01 27 02  09 38 29.518   +39 25 04.52  .81322 1.7562 155.2 22.3 .171  30
2019 01 27 03  09 38 25.497   +39 25 08.84  .81344 1.7565 155.2 22.3 .172  30
2019 01 27 04  09 38 21.474   +39 25 13.11  .81367 1.7568 155.2 22.3 .173  30
2019 01 27 05  09 38 17.452   +39 25 17.34  .81390 1.7571 155.2 22.3 .175  30
2019 01 27 06  09 38 13.429   +39 25 21.51  .81413 1.7574 155.3 22.3 .176  30
2019 01 27 07  09 38 09.406   +39 25 25.65  .81436 1.7577 155.3 22.3 .177  30
2019 01 27 08  09 38 05.382   +39 25 29.73  .81458 1.7580 155.3 22.3 .178  30
2019 01 27 09  09 38 01.358   +39 25 33.76  .81481 1.7582 155.3 22.3 .179  30
2019 01 27 10  09 37 57.334   +39 25 37.75  .81504 1.7585 155.3 22.3 .181  30
2019 01 27 11  09 37 53.309   +39 25 41.69  .81527 1.7588 155.3 22.3 .182  30
2019 01 27 12  09 37 49.284   +39 25 45.58  .81550 1.7591 155.4 22.3 .183  30
2019 01 27 13  09 37 45.259   +39 25 49.43  .81573 1.7594 155.4 22.3 .184  30
2019 01 27 14  09 37 41.234   +39 25 53.22  .81596 1.7597 155.4 22.3 .186  29
2019 01 27 15  09 37 37.208   +39 25 56.97  .81620 1.7600 155.4 22.3 .187  29
2019 01 27 16  09 37 33.183   +39 26 00.67  .81643 1.7602 155.4 22.3 .188  29
2019 01 27 17  09 37 29.157   +39 26 04.33  .81666 1.7605 155.4 22.3 .189  29
2019 01 27 18  09 37 25.131   +39 26 07.93  .81689 1.7608 155.5 22.3 .190  29
2019 01 27 19  09 37 21.104   +39 26 11.49  .81712 1.7611 155.5 22.3 .192  29
2019 01 27 20  09 37 17.078   +39 26 15.00  .81736 1.7614 155.5 22.3 .193  29